Terminal Aerodrome Forecast
Issued by NWS

Home | Current Version | Previous Version | Text Only | Print | Product List | Glossary On
Versions: 1 2 3 4 5 6 7 8 9 10 11 12 13 14 15 16 17 18 19 20 21 22 23 24 25 26 27 28 29 30 31 32 33 34 35 36 37 38 39 40 41
489
FTUS43 KDDC 240520
TAFGCK
TAF
KGCK 240520Z 2406/2506 17010KT P6SM -SHRA OVC060 WS020/16040KT
     FM241300 17013G22KT P6SM VCSH OVC040
     FM241600 18014G22KT P6SM -SHRA OVC025
     FM241800 18015G23KT P6SM VCTS OVC020CB
     FM242000 17017G25KT P6SM -SHRA VCTS BKN025CB=

USA.gov is the U.S. government's official web portal to all federal, state and local government web resources and services.